sat.trackr.live / text

‹ back to catalog

MINXSS-2

NORAD 43758 · 2018-099A

PAYLOAD ACTIVE UNKNOWN

§ Identity

Operator
Country
US
Launch date
2018-12-03
Launch site
AFWTR
Launch vehicle
Mass (kg)
RCS (m²)

External: N2YO · Heavens-Above · Gunter

§ Orbital elements

Epoch: 2026-05-25T04:19:33.497184Z

Period
93.19 min
Inclination
97.4544°
Eccentricity
0.0006319
Mean motion
15.45179555 rev/d
Perigee alt
426.5 km
Apogee alt
435.2 km
Semi-major
6,809.0 km
B*
7.3473e-4
RAAN
220.8193°
Arg perigee
357.4373°
Mean anomaly
2.6842°
Rev number
41,057

§ Raw data

MINXSS-21 43758U 18099A   26145.18024881  .00034893  00000+0  73473-3 0  99972 43758  97.4544 220.8193 0006319 357.4373   2.6842 15.45179555410574

JSON: /api/v1/satellites/43758 · /tle

For live sub-satellite position, see the globe view (requires WebGL).

§ Visibility from observer

Set your observer location to see the next 7 days of passes ≥ 10°. The values pass through the URL so the page stays shareable.

No JS? Fill the form by hand. The geolocation button needs JavaScript.

§ Radio — SatNOGS DB

ModeDescriptionDownlinkUplink
GMSK Secondary 437.250 MHz
GMSK GMSK9k6 (inactive) 437.250 MHz

2 transmitters · refreshed weekly from db.satnogs.org